Flag for Germany Weather past 2 weeks in Hildesheim, Lower Saxony, Germany

Now
50 °F

Passing clouds.


Feels Like: 46 °F
Forecast: 41 / 45 °F
Wind: 10 mph from Southwest

Location: Hannover

Current Time: Mar 29, 2015 at 3:54:33 AM

Latest Report: Mar 29, 2015 at 3:20 AM


Visibility: N/A

Pressure: 29.65 "Hg

Humidity: 94%

Dew point: 48 °F

Location of HildesheimLocation

Historic Weather in Hildesheim — Graph

°F

Hildesheim temperature yesterday

Maximum temperature yesterday: 52 °F (at 1:20 PM)
Minimum temperature yesterday: 39 °F (at 5:20 AM)
Average temperature yesterday: 46 °F

Past Weeks' High & Low Weather Summary

 TemperatureHumidityPressure
High61 °F (Mar 18, 2:20 PM)100% (Mar 16, 6:20 AM)30.42 "Hg (Mar 16, 6:20 AM)
Low28 °F (Mar 20, 3:50 AM)36% (Mar 18, 2:20 PM)29.62 "Hg (Mar 25, 4:50 PM)
Average42 °F78%30.11 "Hg
* Reported Mar 14 1:20 AM — Mar 29 1:20 AM, Hildesheim, Weather by CustomWeather, © 2015

Note: Actual official high and low records may vary slightly from our data, if they occured in-between our weather recording intervals... More about our weather records

Advertising

Hildesheim weather history for previous 24 hours

 ConditionsComfort  
Time TempWeatherWind HumidityBarometerVisibility
1:20 AM
Sun, Mar 29
50 °FLight rain. Passing clouds.13 mph88%29.65 "HgN/A
12:50 AM50 °FLight rain. Passing clouds.15 mph88%29.68 "HgN/A
12:20 AM48 °FLight rain. Passing clouds.15 mph94%29.71 "Hg5 mi
11:50 PM
Sat, Mar 28
48 °FLight rain. Passing clouds.12 mph94%29.71 "Hg5 mi
11:20 PM48 °FLight rain. Passing clouds.13 mph87%29.74 "HgN/A
10:50 PM48 °FPassing clouds.10 mph87%29.74 "HgN/A
10:20 PM48 °FPassing clouds.14 mph87%29.74 "HgN/A
9:50 PM48 °FPassing clouds.15 mph87%29.77 "HgN/A
9:20 PM48 °FPassing clouds.16 mph87%29.80 "HgN/A
8:50 PM48 °FPassing clouds.14 mph82%29.80 "HgN/A
8:20 PM48 °FPassing clouds.13 mph82%29.83 "HgN/A
7:50 PM48 °FPassing clouds.15 mph76%29.83 "HgN/A
7:20 PM48 °FPassing clouds.14 mph76%29.86 "HgN/A
6:50 PM50 °FPassing clouds.15 mph67%29.86 "HgN/A
6:20 PM50 °FPartly sunny.12 mph67%29.86 "HgN/A
5:50 PM50 °FLight rain. Overcast.7 mph67%29.86 "HgN/A
5:20 PM50 °FLight rain. More clouds than sun.10 mph67%29.86 "HgN/A
4:50 PM52 °FLight rain. More clouds than sun.13 mph58%29.89 "HgN/A
4:20 PM52 °FLight rain. More clouds than sun.10 mph54%29.92 "HgN/A
3:50 PM52 °FOvercast.12 mph50%29.92 "HgN/A
3:20 PM52 °FOvercast.12 mph50%29.95 "HgN/A
2:50 PM52 °FPartly sunny.13 mph54%29.95 "HgN/A
2:20 PM52 °FPartly sunny.9 mph50%29.98 "HgN/A
1:50 PM52 °FScattered clouds.12 mph50%29.98 "HgN/A
1:20 PM52 °FScattered clouds.10 mph54%30.01 "HgN/A
12:50 PM50 °FScattered clouds.13 mph58%30.04 "HgN/A
12:20 PM50 °FScattered clouds.12 mph58%30.07 "HgN/A
11:50 AM48 °FScattered clouds.8 mph58%30.07 "HgN/A
11:20 AM46 °FScattered clouds.9 mph62%30.09 "HgN/A
10:50 AM45 °FScattered clouds.9 mph66%30.09 "HgN/A
10:20 AM46 °FScattered clouds.7 mph71%30.09 "HgN/A
9:50 AM45 °FScattered clouds.7 mph76%30.12 "HgN/A
9:20 AM45 °FScattered clouds.8 mph76%30.12 "HgN/A
8:50 AM43 °FPartly sunny.7 mph81%30.15 "HgN/A
8:20 AM41 °FPartly sunny.8 mph87%30.15 "HgN/A
7:50 AM41 °FPartly sunny.5 mph87%30.15 "HgN/A
7:20 AM39 °FPartly sunny.5 mph93%30.15 "HgN/A
6:50 AM39 °FPartly sunny.5 mph93%30.15 "HgN/A
6:20 AM39 °FPartly sunny.2 mph93%30.15 "HgN/A
5:50 AM39 °FPassing clouds.3 mph93%30.18 "HgN/A
5:20 AM39 °FPassing clouds.6 mph93%30.15 "HgN/A
4:20 AM41 °FPassing clouds.5 mph87%30.15 "HgN/A
3:50 AM41 °FPassing clouds.5 mph87%30.15 "HgN/A
3:20 AM41 °FClear.5 mph87%30.15 "Hg10 mi
Weather by CustomWeather, © 2015

See weather overviewHow to use our weather pages